GW5630 Weather Reports


time (UTC)temp
F
wind
direction
speed
knots
gust
knots
rain 1hr
in
rain 24hr
in
rain mn
in
humidity
%
barometer
mb
20260506035016 68 248 3.5 7.0 0.00 0.00 0.00 44 1009.7
20260506034512 68 249 3.5 7.0 0.00 0.00 0.00 44 1009.8
20260506034001 68 250 4.3 7.0 0.00 0.00 0.00 43 1009.8
20260506033505 68 254 2.6 6.1 0.00 0.00 0.00 43 1009.7
20260506033018 68 257 2.6 6.1 0.00 0.00 0.00 43 1009.7
20260506032503 68 261 3.5 6.1 0.00 0.00 0.00 44 1009.7
20260506032008 68 235 3.5 6.1 0.00 0.00 0.00 43 1009.7
20260506031524 68 234 2.6 6.1 0.00 0.00 0.00 44 1009.6
20260506031011 68 242 2.6 6.1 0.00 0.00 0.00 43 1009.6
20260506030507 68 227 2.6 6.1 0.00 0.00 0.00 44 1009.6
20260506030027 68 240 2.6 5.2 0.00 0.00 0.00 44 1009.7
20260506025509 67 254 1.7 5.2 0.00 0.00 0.00 44 1009.7
20260506025011 67 285 2.6 5.2 0.00 0.00 0.00 44 1009.7
20260506024540 67 254 0.9 2.6 0.00 0.00 0.00 44 1009.7
20260506024014 67 260 0.9 2.6 0.00 0.00 0.00 45 1009.7
20260506023513 67 297 0.9 2.6 0.00 0.00 0.00 45 1009.7
20260506023015 67 257 0.9 2.6 0.00 0.00 0.00 44 1009.7
20260506022508 67 293 0.0 0.9 0.00 0.00 0.00 44 1009.7
20260506022004 68 279 0.0 0.9 0.00 0.00 0.00 44 1009.8
20260506021521 68 277 0.0 1.7 0.00 0.00 0.00 43 1009.7
20260506021012 69 277 0.0 1.7 0.00 0.00 0.00 43 1009.7
20260506020509 69 277 0.0 1.7 0.00 0.00 0.00 42 1009.8
20260506020024 70 277 0.0 1.7 0.00 0.00 0.00 41 1009.9
20260506015509 70 278 0.0 1.7 0.00 0.00 0.00 41 1009.8
20260506015009 70 258 0.0 1.7 0.00 0.00 0.00 40 1009.7
20260506014530 71 261 0.0 2.6 0.00 0.00 0.00 40 1009.6
20260506014010 71 249 0.9 4.3 0.00 0.00 0.00 39 1009.6
20260506013512 71 252 2.6 4.3 0.00 0.00 0.00 39 1009.6
20260506013025 71 272 0.9 4.3 0.00 0.00 0.00 39 1009.5
20260506012510 72 242 0.9 3.5 0.00 0.00 0.00 40 1009.5
20260506012007 72 252 0.0 6.1 0.00 0.00 0.00 40 1009.3
20260506011515 72 249 2.6 6.1 0.00 0.00 0.00 39 1009.3
20260506011006 72 264 1.7 6.1 0.00 0.00 0.00 39 1009.2
20260506010502 72 242 3.5 7.0 0.00 0.00 0.00 38 1009.0
20260506010006 72 267 2.6 7.0 0.00 0.00 0.00 39 1009.0
20260506005502 72 212 2.6 7.0 0.00 0.00 0.00 39 1009.0
20260506005002 73 254 3.5 7.0 0.00 0.00 0.00 38 1008.8
20260506004506 73 323 1.7 6.1 0.00 0.00 0.00 39 1008.8
20260506004004 73 245 2.6 5.2 0.00 0.00 0.00 39 1008.8
20260506003504 73 257 2.6 5.2 0.00 0.00 0.00 39 1008.8
20260506003008 73 248 1.7 3.5 0.00 0.00 0.00 39 1008.7
20260506002506 73 260 1.7 5.2 0.00 0.00 0.00 39 1008.7
20260506002005 73 232 0.9 6.1 0.00 0.00 0.00 40 1008.6
20260506001527 73 236 2.6 6.1 0.00 0.00 0.00 39 1008.6
20260506001006 73 246 2.6 8.7 0.00 0.00 0.00 39 1008.5
20260506000503 73 257 5.2 8.7 0.00 0.00 0.00 39 1008.4
20260506000019 73 244 2.6 7.8 0.00 0.00 0.00 39 1008.3
20260505235507 74 248 4.3 7.8 0.00 0.00 0.00 39 1008.3
20260505235003 74 254 5.2 7.8 0.00 0.00 0.00 39 1008.2
20260505234503 74 220 4.3 8.7 0.00 0.00 0.00 39 1008.3
20260505234004 74 212 2.6 10.4 0.00 0.00 0.00 39 1008.2
20260505233504 74 230 5.2 10.4 0.00 0.00 0.00 39 1008.1
20260505233006 74 250 2.6 7.0 0.00 0.00 0.00 40 1008.1
20260505232507 74 266 3.5 7.8 0.00 0.00 0.00 40 1008.2
20260505232006 74 269 2.6 7.8 0.00 0.00 0.00 39 1008.1
20260505231510 74 227 3.5 9.6 0.00 0.00 0.00 39 1008.1
20260505231008 74 239 6.1 9.6 0.00 0.00 0.00 38 1008.1
20260505230505 74 257 2.6 8.7 0.00 0.00 0.00 39 1008.1
20260505230018 74 266 5.2 8.7 0.00 0.00 0.00 39 1008.0
20260505225508 74 263 4.3 9.6 0.00 0.00 0.00 39 1008.0
20260505225004 74 244 3.5 9.6 0.00 0.00 0.00 39 1008.1
20260505224520 74 263 5.2 12.2 0.00 0.00 0.00 39 1008.1
20260505224003 74 253 7.0 12.2 0.00 0.00 0.00 39 1008.0
20260505223503 74 244 5.2 11.3 0.00 0.00 0.00 40 1008.1
20260505223004 74 260 2.6 7.8 0.00 0.00 0.00 41 1007.9
20260505222504 74 239 3.5 7.8 0.00 0.00 0.00 41 1007.9
20260505222005 74 258 2.6 7.8 0.00 0.00 0.00 41 1008.0
20260505221508 74 249 3.5 7.0 0.00 0.00 0.00 40 1008.1
20260505221004 74 257 3.5 6.1 0.00 0.00 0.00 41 1008.0
20260505220503 74 250 2.6 6.1 0.00 0.00 0.00 41 1008.0
20260505220014 74 261 2.6 7.8 0.00 0.00 0.00 41 1007.9
20260505215506 74 218 3.5 8.7 0.00 0.00 0.00 41 1007.9
20260505215006 74 243 5.2 11.3 0.00 0.00 0.00 40 1007.8
20260505214524 74 247 5.2 11.3 0.00 0.00 0.00 40 1007.9
20260505214008 74 263 3.5 8.7 0.00 0.00 0.00 41 1007.8
20260505213507 74 236 3.5 7.0 0.00 0.00 0.00 41 1007.8
20260505213024 74 250 4.3 10.4 0.00 0.00 0.00 40 1007.8
20260505212503 74 246 2.6 10.4 0.00 0.00 0.00 40 1007.8
20260505212003 74 242 6.1 10.4 0.00 0.00 0.00 40 1007.8
20260505211508 74 227 7.0 13.0 0.00 0.00 0.00 39 1007.7
20260505211004 75 286 6.1 13.0 0.00 0.00 0.00 39 1007.7
20260505210508 75 242 3.5 9.6 0.00 0.00 0.00 40 1007.7
20260505210012 75 260 4.3 11.3 0.00 0.00 0.00 39 1007.6
20260505205505 75 240 4.3 11.3 0.00 0.00 0.00 39 1007.6
20260505205007 75 244 0.0 4.3 0.00 0.00 0.00 40 1007.6
20260505204517 75 236 0.0 0.0 0.00 0.00 0.00 38 1007.6
20260505204008 76 225 0.0 1.7 0.00 0.00 0.00 38 1007.6
20260505203509 76 227 0.0 13.9 0.00 0.00 0.00 38 1007.4
20260505203022 76 247 0.0 13.9 0.00 0.00 0.00 37 1007.5
20260505202508 76 234 5.2 10.4 0.00 0.00 0.00 38 1007.5
20260505202008 77 236 3.5 11.3 0.00 0.00 0.00 37 1007.3
20260505201510 77 225 5.2 13.9 0.00 0.00 0.00 38 1007.7
20260505201004 78 232 7.0 12.2 0.00 0.00 0.00 37 1007.6
20260505200505 78 229 7.0 13.0 0.00 0.00 0.00 37 1007.7
20260505200008 78 232 5.2 13.0 0.00 0.00 0.00 36 1007.6
20260505195508 78 253 5.2 10.4 0.00 0.00 0.00 36 1007.6
20260505195006 79 225 3.5 10.4 0.00 0.00 0.00 37 1007.7
20260505194527 79 232 5.2 10.4 0.00 0.00 0.00 36 1007.7
20260505194006 79 236 4.3 9.6 0.00 0.00 0.00 35 1007.5
20260505193510 79 213 3.5 9.6 0.00 0.00 0.00 38 1007.6
20260505193018 79 189 3.5 11.3 0.00 0.00 0.00 37 1007.6
20260505192516 79 215 1.7 11.3 0.00 0.00 0.00 39 1007.6
20260505192009 79 252 6.1 11.3 0.00 0.00 0.00 36 1007.7
20260505191526 79 232 5.2 12.2 0.00 0.00 0.00 36 1007.9
20260505191007 79 243 7.0 12.2 0.00 0.00 0.00 35 1007.9
20260505190503 78 261 6.1 11.3 0.00 0.00 0.00 36 1007.9
20260505190007 78 238 6.1 11.3 0.00 0.00 0.00 38 1008.1
20260505185507 77 237 5.2 10.4 0.00 0.00 0.00 36 1008.2
20260505185010 77 232 4.3 9.6 0.00 0.00 0.00 40 1008.3
20260505184514 76 273 5.2 12.2 0.00 0.00 0.00 39 1008.3
20260505184006 77 249 2.6 12.2 0.00 0.00 0.00 36 1008.5
20260505183507 77 241 6.1 11.3 0.00 0.00 0.00 36 1008.3
20260505183027 77 246 3.5 12.2 0.00 0.00 0.00 37 1008.5
20260505182511 77 249 7.8 13.0 0.00 0.00 0.00 35 1008.7
20260505182010 77 246 8.7 13.9 0.00 0.00 0.00 35 1008.7
20260505181524 77 264 6.1 13.9 0.00 0.00 0.00 36 1008.8
20260505181009 78 241 4.3 9.6 0.00 0.00 0.00 38 1008.7
20260505180508 78 248 6.1 13.0 0.00 0.00 0.00 39 1008.8
20260505180026 78 250 3.5 13.0 0.00 0.00 0.00 39 1008.9
20260505175510 78 257 7.8 13.0 0.00 0.00 0.00 36 1008.8
20260505175005 78 217 7.8 13.0 0.00 0.00 0.00 37 1008.8
20260505174509 78 229 7.0 13.0 0.00 0.00 0.00 38 1008.7
20260505174006 78 227 3.5 15.6 0.00 0.00 0.00 40 1008.8
20260505173509 77 248 6.1 15.6 0.00 0.00 0.00 40 1009.0
20260505173017 77 273 5.2 10.4 0.00 0.00 0.00 39 1008.8
20260505172505 77 212 6.1 13.0 0.00 0.00 0.00 40 1008.7
20260505172005 77 254 9.6 13.0 0.00 0.00 0.00 39 1008.7
20260505171521 77 234 7.8 13.0 0.00 0.00 0.00 40 1009.0
20260505171006 77 251 6.1 13.0 0.00 0.00 0.00 40 1009.0
20260505170507 77 252 6.1 11.3 0.00 0.00 0.00 40 1009.1
20260505170022 77 213 3.5 8.7 0.00 0.00 0.00 41 1009.0
20260505165509 77 273 4.3 13.0 0.00 0.00 0.00 39 1009.2
20260505165008 77 247 7.0 11.3 0.00 0.00 0.00 41 1009.3
20260505164526 78 267 2.6 12.2 0.00 0.00 0.00 41 1009.3
20260505164011 78 223 3.5 12.2 0.00 0.00 0.00 43 1009.4
20260505163507 78 253 2.6 7.0 0.00 0.00 0.00 41 1009.6
20260505163026 77 266 4.3 9.6 0.00 0.00 0.00 40 1009.5
20260505162505 77 234 4.3 9.6 0.00 0.00 0.00 41 1009.6
20260505162010 77 241 2.6 10.4 0.00 0.00 0.00 42 1009.6
20260505161519 76 244 6.1 9.6 0.00 0.00 0.00 43 1009.7
20260505161007 76 265 4.3 9.6 0.00 0.00 0.00 42 1009.6
20260505160514 76 321 4.3 11.3 0.00 0.00 0.00 43 1009.6
20260505153010 75 222 4.3 10.4 0.00 0.00 0.00 46 1010.0
20260505152506 74 223 7.0 9.6 0.00 0.00 0.00 47 1010.0
20260505152011 74 257 3.5 9.6 0.00 0.00 0.00 48 1010.1
20260505151528 74 232 2.6 7.8 0.00 0.00 0.00 49 1010.0
20260505151007 74 227 4.3 11.3 0.00 0.00 0.00 49 1010.0
20260505150507 74 263 6.1 11.3 0.00 0.00 0.00 48 1010.0
20260505140507 71 251 2.6 7.8 0.00 0.00 0.00 52 1010.3
20260505125007 66 261 4.3 7.0 0.00 0.00 0.00 57 1010.7
20260505124527 66 250 3.5 7.0 0.00 0.00 0.00 55 1010.6
20260505124007 66 238 3.5 7.0 0.00 0.00 0.00 57 1010.6
20260505123510 65 237 2.6 8.7 0.00 0.00 0.00 56 1010.3
20260505123029 65 249 3.5 8.7 0.00 0.00 0.00 57 1010.3
20260505122508 65 259 2.6 6.1 0.00 0.00 0.00 57 1010.3
20260505122004 64 244 2.6 7.0 0.00 0.00 0.00 60 1010.4
20260505121514 64 261 4.3 8.7 0.00 0.00 0.00 58 1010.3
20260505121008 63 227 5.2 8.7 0.00 0.00 0.00 60 1010.4
20260505120508 63 225 4.3 7.8 0.00 0.00 0.00 60 1010.4
20260505120028 63 246 5.2 7.8 0.00 0.00 0.00 60 1010.5
20260505115511 62 252 5.2 7.0 0.00 0.00 0.00 60 1010.4
20260505115010 62 245 4.3 7.8 0.00 0.00 0.00 61 1010.4
20260505114528 62 243 5.2 7.8 0.00 0.00 0.00 60 1010.3
20260505114009 62 256 3.5 7.0 0.00 0.00 0.00 60 1010.1
20260505113507 63 254 3.5 7.8 0.00 0.00 0.00 60 1010.2
20260505113024 62 229 4.3 7.8 0.00 0.00 0.00 61 1010.2
20260505112507 62 229 2.6 7.8 0.00 0.00 0.00 61 1010.2
20260505112009 62 233 3.5 7.8 0.00 0.00 0.00 61 1010.2
20260505111525 62 257 3.5 8.7 0.00 0.00 0.00 61 1010.2
20260505111009 62 260 5.2 8.7 0.00 0.00 0.00 60 1010.2
20260505110505 61 248 3.5 7.8 0.00 0.00 0.00 61 1010.1
20260505102008 60 264 4.3 8.7 0.00 0.00 0.00 63 1009.6
20260505101538 60 235 3.5 8.7 0.00 0.00 0.00 63 1009.6
20260505101014 60 232 4.3 9.6 0.00 0.00 0.00 62 1009.6
20260505100510 60 254 5.2 9.6 0.00 0.00 0.00 62 1009.6
20260505100027 60 215 4.3 10.4 0.00 0.00 0.00 62 1009.5
20260505095505 60 216 6.1 10.4 0.00 0.00 0.00 62 1009.4
20260505095006 60 248 5.2 7.8 0.00 0.00 0.00 63 1009.5
20260505094521 61 244 4.3 7.0 0.00 0.00 0.00 63 1009.4
20260505094005 61 244 3.5 7.8 0.00 0.00 0.00 62 1009.4
20260505093505 61 244 4.3 8.7 0.00 0.00 0.00 62 1009.4
20260505093020 61 234 4.3 7.8 0.00 0.00 0.00 62 1009.4
20260505092508 61 248 2.6 8.7 0.00 0.00 0.00 62 1009.4
20260505092008 61 223 4.3 7.8 0.00 0.00 0.00 62 1009.4
20260505091526 61 256 3.5 7.8 0.00 0.00 0.00 63 1009.3
20260505091008 60 231 3.5 7.8 0.00 0.00 0.00 63 1009.3
20260505090509 60 219 3.5 7.8 0.00 0.00 0.00 63 1009.2
20260505090028 60 230 3.5 7.0 0.00 0.00 0.00 64 1009.3
20260505085512 60 229 2.6 6.1 0.00 0.00 0.00 64 1009.3
20260505085011 60 246 2.6 6.1 0.00 0.00 0.00 64 1009.4
20260505084528 60 251 2.6 7.0 0.00 0.00 0.00 64 1009.4
20260505084005 60 236 3.5 7.0 0.00 0.00 0.00 64 1009.5
20260505083508 60 246 3.5 7.0 0.00 0.00 0.00 64 1009.4
20260505083022 60 259 3.5 7.0 0.00 0.00 0.00 64 1009.4
20260505082505 60 246 2.6 6.1 0.00 0.00 0.00 64 1009.4
20260505082010 60 261 3.5 7.0 0.00 0.00 0.00 64 1009.3
20260505081522 60 254 4.3 7.0 0.00 0.00 0.00 64 1009.2
20260505081014 61 234 4.3 7.8 0.00 0.00 0.00 64 1009.1
20260505080510 61 258 3.5 8.7 0.00 0.00 0.00 63 1009.2
20260505080024 61 249 4.3 12.2 0.00 0.00 0.00 62 1009.2
20260505075508 61 214 5.2 12.2 0.00 0.00 0.00 60 1009.3
20260505075016 61 248 6.1 11.3 0.00 0.00 0.00 58 1009.3
20260505074528 61 240 6.1 8.7 0.00 0.00 0.00 58 1009.5
20260505074008 61 236 3.5 6.1 0.00 0.00 0.00 58 1009.5
20260505073511 61 240 2.6 6.1 0.00 0.00 0.00 58 1009.3
20260505073020 61 248 3.5 5.2 0.00 0.00 0.00 58 1009.2
20260505072505 61 239 1.7 5.2 0.00 0.00 0.00 58 1009.2
20260505072005 61 227 2.6 5.2 0.00 0.00 0.00 58 1009.3
20260505071530 61 251 1.7 5.2 0.00 0.00 0.00 58 1009.3
20260505071007 61 240 1.7 6.1 0.00 0.00 0.00 58 1009.4
20260505070509 61 259 3.5 6.1 0.00 0.00 0.00 58 1009.5
20260505070027 60 267 1.7 4.3 0.00 0.00 0.00 58 1009.5
20260505065507 60 259 1.7 4.3 0.00 0.00 0.00 58 1009.5
20260505065007 60 250 2.6 5.2 0.00 0.00 0.00 57 1009.5
20260505064525 60 250 2.6 5.2 0.00 0.00 0.00 58 1009.5
20260505064009 60 229 2.6 4.3 0.00 0.00 0.00 57 1009.6
20260505063509 61 261 1.7 6.1 0.00 0.00 0.00 57 1009.6
20260505063025 61 234 2.6 6.1 0.00 0.00 0.00 57 1009.6
20260505062506 61 223 2.6 5.2 0.00 0.00 0.00 56 1009.6
20260505062005 61 221 1.7 5.2 0.00 0.00 0.00 56 1009.7
20260505061519 61 258 2.6 6.1 0.00 0.00 0.00 56 1009.8
20260505061005 61 243 2.6 6.1 0.00 0.00 0.00 56 1009.7
20260505060510 61 232 2.6 6.1 0.00 0.00 0.00 56 1009.8
20260505060007 61 231 2.6 7.0 0.00 0.00 0.00 56 1009.8
20260505055503 61 226 2.6 7.0 0.00 0.00 0.00 56 1009.8
20260505055012 61 238 2.6 7.0 0.00 0.00 0.00 56 1009.9
20260505054511 61 257 3.5 7.0 0.00 0.00 0.00 55 1009.8
20260505054011 61 241 3.5 7.0 0.00 0.00 0.00 55 1009.8
20260505053503 61 227 1.7 7.0 0.00 0.00 0.00 55 1009.9
20260505053010 61 225 2.6 7.0 0.00 0.00 0.00 56 1009.9
20260505052505 61 232 2.6 7.0 0.00 0.00 0.00 55 1009.8
20260505052006 61 228 3.5 8.7 0.00 0.00 0.00 55 1009.9
20260505051525 61 247 3.5 8.7 0.00 0.00 0.00 55 1009.8
20260505051006 61 242 3.5 7.0 0.00 0.00 0.00 55 1009.7
20260505050507 61 253 4.3 7.8 0.00 0.00 0.00 55 1009.7
20260505041521 61 232 3.5 7.8 0.00 0.00 0.00 52 1009.5
20260505041005 61 227 3.5 7.8 0.00 0.00 0.00 51 1009.5
20260505040506 61 273 4.3 8.7 0.00 0.00 0.00 51 1009.4
20260505040020 61 254 3.5 8.7 0.00 0.00 0.00 51 1009.3
20260505035506 61 257 4.3 8.7 0.00 0.00 0.00 51 1009.4